OpenBCM V1.13 (Linux)

Packet Radio Mailbox

DB0FHN

[JN59NK Nuernberg]

 Login: GUEST





  
I6KZR  > KEPLER   13.01.03 10:06l 1484 Lines 39759 Bytes #999 (0) @ WW
BID : 17062_IK6WID
Read: DB0FHN GUEST
Subj: Old Istantrak Keplerians #008
Path: DB0FHN<DB0RGB<DB0MRW<DB0ERF<DB0FBB<DB0GOS<ON0AR<ON0AR<IK1ZNW<IK6PYS<
      I6ZLO<IK6WID
Sent: 030108/2150Z @:IK6WID.#AP.IMAR.ITA.EU #:17062 [MONTE URANO]  FBB7.00i
From: I6KZR@IK6WID.#AP.IMAR.ITA.EU
To  : KEPLER@WW


Inviato da: I6KZR@GB7YKS.#19.GBR.EU        

Satellite: OSCAR 7
Catalog number: 07530
Epoch time:      103006.91531054
Element set:     147 
Inclination:      101.7689 deg
RA of node:        55.0918 deg
Eccentricity:    0.0012324
Arg of perigee:   160.1961 deg
Mean anomaly:     199.9593 deg
Mean motion:   12.53563391 rev/day
Decay rate:   -2.9000E-007 rev/day^2
Epoch rev:           28784
Checksum:              306

Satellite: GOES 2
Catalog number: 10061
Epoch time:      103005.42586557
Element set:     46 
Inclination:       14.1214 deg
RA of node:        13.7857 deg
Eccentricity:    0.0013992
Arg of perigee:   196.1981 deg
Mean anomaly:     163.7785 deg
Mean motion:    0.99397401 rev/day
Decay rate:   -2.7099E-006 rev/day^2
Epoch rev:            3839
Checksum:              317

Satellite: GOES 3
Catalog number: 10953
Epoch time:      103008.05164197
Element set:     883 
Inclination:       13.3912 deg
RA of node:        17.5504 deg
Eccentricity:    0.0004485
Arg of perigee:   339.2378 deg
Mean anomaly:      20.7676 deg
Mean motion:    1.00277854 rev/day
Decay rate:   -9.2999E-007 rev/day^2
Epoch rev:            4308
Checksum:              313

Satellite: GOES 6
Catalog number: 14050
Epoch time:      103008.17061170
Element set:     411 
Inclination:       10.3474 deg
RA of node:        35.7445 deg
Eccentricity:    0.0002853
Arg of perigee:   353.5068 deg
Mean anomaly:       6.5190 deg
Mean motion:    1.00289581 rev/day
Decay rate:    5.9000E-007 rev/day^2
Epoch rev:           13022
Checksum:              244

Satellite: OSCAR 10
Catalog number: 14129
Epoch time:      103003.75114346
Element set:     909 
Inclination:       25.8684 deg
RA of node:       171.9489 deg
Eccentricity:    0.6045675
Arg of perigee:   316.0767 deg
Mean anomaly:       9.1337 deg
Mean motion:    2.05866504 rev/day
Decay rate:    2.2300E-006 rev/day^2
Epoch rev:           11912
Checksum:              298

Satellite: OSCAR 11 (UoSA
Catalog number: 14781
Epoch time:      103007.56762710
Element set:     38 
Inclination:       98.1118 deg
RA of node:       341.1912 deg
Eccentricity:    0.0009415
Arg of perigee:   354.1312 deg
Mean anomaly:       5.9786 deg
Mean motion:   14.77850271 rev/day
Decay rate:    1.0609E-005 rev/day^2
Epoch rev:            1003
Checksum:              280

Satellite: NOAA 10
Catalog number: 16969
Epoch time:      103007.90054120
Element set:     619 
Inclination:       98.7256 deg
RA of node:         2.1085 deg
Eccentricity:    0.0011957
Arg of perigee:   205.5964 deg
Mean anomaly:     154.4624 deg
Mean motion:   14.27044900 rev/day
Decay rate:    1.3400E-006 rev/day^2
Epoch rev:           84796
Checksum:              299

Satellite: GOES 7
Catalog number: 17561
Epoch time:      102365.28731075
Element set:     800 
Inclination:        7.5101 deg
RA of node:        55.7833 deg
Eccentricity:    0.0005728
Arg of perigee:   297.8002 deg
Mean anomaly:      38.0435 deg
Mean motion:    1.00306786 rev/day
Decay rate:    9.1999E-007 rev/day^2
Epoch rev:            4124
Checksum:              404

Satellite: COSMOS 1861
Catalog number: 18129
Epoch time:      103008.10911788
Element set:     186 
Inclination:       82.9239 deg
RA of node:       177.2103 deg
Eccentricity:    0.0012008
Arg of perigee:   349.8849 deg
Mean anomaly:      10.2057 deg
Mean motion:   13.72696084 rev/day
Decay rate:    6.2999E-007 rev/day^2
Epoch rev:           77882
Checksum:              351

Satellite: EUTELSAT 1-F4 
Catalog number: 18351
Epoch time:      102352.12522730
Element set:     23 
Inclination:        7.0733 deg
RA of node:        58.7527 deg
Eccentricity:    0.0004962
Arg of perigee:   184.4653 deg
Mean anomaly:     172.0391 deg
Mean motion:    0.96710043 rev/day
Decay rate:   -6.1999E-007 rev/day^2
Epoch rev:            4206
Checksum:              396

Satellite: NOAA 11
Catalog number: 19531
Epoch time:      103007.84916278
Element set:     457 
Inclination:       98.9078 deg
RA of node:        89.3592 deg
Eccentricity:    0.0011428
Arg of perigee:   324.5638 deg
Mean anomaly:      35.4774 deg
Mean motion:   14.14515476 rev/day
Decay rate:    1.5099E-006 rev/day^2
Epoch rev:           73690
Checksum:              347

Satellite: ASTRA 1A
Catalog number: 19688
Epoch time:      103005.86217814
Element set:     552 
Inclination:        1.2645 deg
RA of node:        96.5336 deg
Eccentricity:    0.0003294
Arg of perigee:   181.4386 deg
Mean anomaly:     142.6513 deg
Mean motion:    1.00273600 rev/day
Decay rate:    3.4000E-007 rev/day^2
Epoch rev:            3175
Checksum:              269

Satellite: OSCAR 14 (UOSA
Catalog number: 20437
Epoch time:      103007.76230615
Element set:     136 
Inclination:       98.2791 deg
RA of node:        53.3609 deg
Eccentricity:    0.0010680
Arg of perigee:   331.3140 deg
Mean anomaly:      28.7455 deg
Mean motion:   14.31221585 rev/day
Decay rate:    9.4000E-007 rev/day^2
Epoch rev:           67651
Checksum:              282

Satellite: OSCAR 15 (UOSA
Catalog number: 20438
Epoch time:      103006.63217284
Element set:     769 
Inclination:       98.2532 deg
RA of node:        41.5975 deg
Eccentricity:    0.0010127
Arg of perigee:   346.6384 deg
Mean anomaly:      13.4527 deg
Mean motion:   14.30184850 rev/day
Decay rate:    8.7000E-007 rev/day^2
Epoch rev:           67602
Checksum:              303

Satellite: OSCAR 16 (PACS
Catalog number: 20439
Epoch time:      103006.73554623
Element set:     834 
Inclination:       98.3250 deg
RA of node:        63.8142 deg
Eccentricity:    0.0011104
Arg of perigee:   340.7589 deg
Mean anomaly:      19.3161 deg
Mean motion:   14.31452350 rev/day
Decay rate:    1.6100E-006 rev/day^2
Epoch rev:           67640
Checksum:              272

Satellite: OSCAR 17 (DOVE
Catalog number: 20440
Epoch time:      103006.94241750
Element set:     719 
Inclination:       98.3436 deg
RA of node:        67.8053 deg
Eccentricity:    0.0011429
Arg of perigee:   338.3030 deg
Mean anomaly:      21.7670 deg
Mean motion:   14.31728618 rev/day
Decay rate:    1.5099E-006 rev/day^2
Epoch rev:           67650
Checksum:              301

Satellite: OSCAR 18 (WEBE
Catalog number: 20441
Epoch time:      103008.18660352
Element set:     982 
Inclination:       98.3416 deg
RA of node:        68.2402 deg
Eccentricity:    0.0011431
Arg of perigee:   336.3708 deg
Mean anomaly:      23.6948 deg
Mean motion:   14.31535051 rev/day
Decay rate:    1.2499E-006 rev/day^2
Epoch rev:           67666
Checksum:              304

Satellite: OSCAR 19 (LUSA
Catalog number: 20442
Epoch time:      103007.26119938
Element set:     934 
Inclination:       98.3547 deg
RA of node:        70.2982 deg
Eccentricity:    0.0011929
Arg of perigee:   337.5135 deg
Mean anomaly:      22.5523 deg
Mean motion:   14.31697293 rev/day
Decay rate:    1.5399E-006 rev/day^2
Epoch rev:           67658
Checksum:              337

Satellite: JAS 1B (FUJI 2
Catalog number: 20480
Epoch time:      103006.90259461
Element set:     456 
Inclination:       99.0395 deg
RA of node:       337.6873 deg
Eccentricity:    0.0540997
Arg of perigee:   100.4699 deg
Mean anomaly:     265.7801 deg
Mean motion:   12.83327575 rev/day
Decay rate:   -1.8999E-007 rev/day^2
Epoch rev:           60504
Checksum:              439

Satellite: HST
Catalog number: 20580
Epoch time:      103008.19144876
Element set:     290 
Inclination:       28.4677 deg
RA of node:       306.8351 deg
Eccentricity:    0.0004425
Arg of perigee:   190.4506 deg
Mean anomaly:     346.0797 deg
Mean motion:   14.97628124 rev/day
Decay rate:    2.6050E-005 rev/day^2
Epoch rev:           49642
Checksum:              309

Satellite: EUTELSAT 2-F1
Catalog number: 20777
Epoch time:      103006.90690907
Element set:     10 
Inclination:        3.3953 deg
RA of node:        84.8352 deg
Eccentricity:    0.0001627
Arg of perigee:   236.6198 deg
Mean anomaly:     187.1507 deg
Mean motion:    1.00274370 rev/day
Decay rate:   -9.8999E-007 rev/day^2
Epoch rev:            2567
Checksum:              315

Satellite: FENGYUN 1B
Catalog number: 20788
Epoch time:      103007.57474883
Element set:     852 
Inclination:       99.0215 deg
RA of node:       350.1773 deg
Eccentricity:    0.0015648
Arg of perigee:   347.4341 deg
Mean anomaly:      12.6427 deg
Mean motion:   14.02138839 rev/day
Decay rate:    2.9099E-006 rev/day^2
Epoch rev:           63165
Checksum:              324

Satellite: EUTELSAT 2-F2
Catalog number: 21056
Epoch time:      103007.90451598
Element set:     607 
Inclination:        2.6289 deg
RA of node:        88.2997 deg
Eccentricity:    0.0002449
Arg of perigee:   217.5750 deg
Mean anomaly:     175.1442 deg
Mean motion:    1.00273102 rev/day
Decay rate:    1.2499E-006 rev/day^2
Epoch rev:            3146
Checksum:              293

Satellite: INFORMATOR 1
Catalog number: 21087
Epoch time:      103007.05967876
Element set:     589 
Inclination:       82.9415 deg
RA of node:       348.8860 deg
Eccentricity:    0.0036174
Arg of perigee:    11.3260 deg
Mean anomaly:     348.8700 deg
Mean motion:   13.74921357 rev/day
Decay rate:    4.1000E-007 rev/day^2
Epoch rev:           59904
Checksum:              318

Satellite: COSMOS 2123
Catalog number: 21089
Epoch time:      103008.55443769
Element set:     481 
Inclination:       82.9202 deg
RA of node:       211.8043 deg
Eccentricity:    0.0030687
Arg of perigee:    41.9145 deg
Mean anomaly:     318.4349 deg
Mean motion:   13.74399739 rev/day
Decay rate:    8.1000E-007 rev/day^2
Epoch rev:           59815
Checksum:              324

